Weather History for Rockingham, NC

Change the Weather History Date:

Monday, January 21, 2013

  Actual Average (KHFF) Record (KHFF)
Temperature  
Mean Temperature 46 °F -  
Max Temperature 61 °F 51 °F 73 °F (1999)
Min Temperature 31 °F 29 °F 11 °F (2009)
Degree Days  
Heating Degree Days 19    
Moisture  
Dew Point 32 °F    
Average Humidity 61    
Maximum Humidity 99    
Minimum Humidity 33    
Precipitation  
Precipitation 0.00 in - - ()
Sea Level Pressure  
Sea Level Pressure 30.01 in    
Wind  
Wind Speed 3 mph (WSW)    
Max Wind Speed 13 mph    
Max Gust Speed 16 mph    
Visibility 10 miles    
Events      
Averages and records for this station are not official NWS values.
T = Trace of Precipitation, MM = Missing Value Source: NWS Daily Summary

Daily Weather History Graph

Daily Weather History Graph

Search for Another Location

Airport:

Trip Planner

Search our weather history database for the weather conditions in past years. The results will help you decide how hot, cold, wet, or windy it might be!

Date:

Astronomy

Jan. 21, 2013 Rise Set
Actual Time 7:24 AM EST 5:37 PM EST
Civil Twilight 6:56 AM EST 6:04 PM EST
Nautical Twilight 6:26 AM EST 6:35 PM EST
Astronomical Twilight 5:56 AM EST 7:05 PM EST
Moon 1:16 PM EST (1/21) 2:50 AM EST (1/21)
Length of Visible Light 11h 07m
Length of Day
10h 13m
Waxing Gibbous, 75% of the Moon is Illuminated
Jan 21
Waxing Gibbous
Jan 26
Full
Feb 3
Last Quarter
Feb 10
New
Feb 17
First Quarter

Hourly Weather History & Observations

Time (EST) Temp. Windchill Dew Point Humidity Pressure Visibility Wind Dir Wind Speed Gust Speed Precip Events Conditions
12:15 AM 42.3 °F 40.5 °F 35.8 °F 78% 30.08 in 10.0 mi NNE 3.5 mph - N/A   Clear
12:35 AM 42.3 °F - 35.2 °F 76% 30.08 in 10.0 mi Calm Calm - N/A   Clear
12:55 AM 42.6 °F - 34.7 °F 74% 30.08 in 10.0 mi Calm Calm - N/A   Clear
1:15 AM 38.8 °F - 35.4 °F 88% 30.07 in 10.0 mi Calm Calm - N/A   Clear
1:35 AM 38.3 °F - 35.6 °F 90% 30.07 in 10.0 mi Calm Calm - N/A   Clear
1:55 AM 36.0 °F - 33.6 °F 91% 30.07 in 10.0 mi Calm Calm - N/A   Clear
2:15 AM 35.1 °F - 33.8 °F 95% 30.07 in 10.0 mi Calm Calm - N/A   Clear
2:35 AM 36.5 °F - 34.7 °F 93% 30.07 in 10.0 mi Calm Calm - N/A   Clear
2:55 AM 37.0 °F - 35.2 °F 93% 30.07 in 10.0 mi Calm Calm - N/A   Clear
3:15 AM 36.3 °F 33.7 °F 34.7 °F 94% 30.07 in 10.0 mi NNE 3.5 mph - N/A   Clear
3:35 AM 36.5 °F 33.9 °F 34.2 °F 91% 30.06 in 10.0 mi NE 3.5 mph - N/A   Clear
3:55 AM 35.4 °F 32.6 °F 33.6 °F 93% 30.06 in 10.0 mi NNE 3.5 mph - N/A   Clear
4:15 AM 34.7 °F - 33.3 °F 94% 30.06 in 10.0 mi Calm Calm - N/A   Clear
4:35 AM 32.2 °F - 31.6 °F 98% 30.06 in 10.0 mi Calm Calm - N/A   Clear
4:55 AM 33.1 °F - 32.0 °F 96% 30.06 in 10.0 mi Calm Calm - N/A   Clear
5:15 AM 32.9 °F - 32.0 °F 96% 30.06 in 10.0 mi Calm Calm - N/A   Clear
5:55 AM 32.0 °F - 31.8 °F 99% 30.05 in 10.0 mi Calm Calm - N/A   Clear
6:15 AM 32.0 °F - 31.8 °F 99% 30.05 in 10.0 mi Calm Calm - N/A   Clear
6:35 AM 32.0 °F - 31.5 °F 98% 30.05 in 10.0 mi Calm Calm - N/A   Clear
6:55 AM 31.5 °F - 30.7 °F 97% 30.05 in 10.0 mi Calm Calm - N/A   Clear
7:15 AM 31.5 °F - 30.9 °F 98% 30.05 in 10.0 mi Calm Calm - N/A   Clear
7:35 AM 32.0 °F - 31.1 °F 96% 30.06 in 10.0 mi Calm Calm - N/A   Clear
7:55 AM 32.0 °F - 31.6 °F 99% 30.06 in 10.0 mi Calm Calm - N/A   Clear
8:15 AM 33.4 °F - 32.0 °F 94% 30.06 in 10.0 mi Calm Calm - N/A   Clear
8:35 AM 36.1 °F - 32.4 °F 86% 30.07 in 10.0 mi Calm Calm - N/A   Clear
8:55 AM 38.3 °F - 32.4 °F 79% 30.08 in 10.0 mi Calm Calm - N/A   Clear
9:15 AM 41.0 °F 39.0 °F 33.3 °F 74% 30.08 in 10.0 mi North 3.5 mph - N/A   Clear
9:35 AM 42.8 °F - 35.4 °F 75% 30.09 in 10.0 mi Calm Calm - N/A   Clear
9:55 AM 45.7 °F - 34.5 °F 65% 30.09 in 10.0 mi Calm Calm - N/A   Clear
10:15 AM 48.4 °F - 33.4 °F 56% 30.09 in 10.0 mi Calm Calm - N/A   Clear
10:35 AM 50.7 °F - 33.3 °F 51% 30.08 in 10.0 mi East 3.5 mph - N/A   Clear
10:55 AM 53.2 °F - 32.5 °F 45% 30.06 in 10.0 mi SE 3.5 mph - N/A   Clear
11:15 AM 54.1 °F - 30.7 °F 41% 30.05 in 10.0 mi SE 5.8 mph - N/A   Clear
11:35 AM 55.6 °F - 29.3 °F 37% 30.04 in 10.0 mi SE 9.2 mph - N/A   Clear
11:55 AM 56.3 °F - 30.0 °F 37% 30.02 in 10.0 mi SE 5.8 mph - N/A   Clear
12:15 PM 57.6 °F - 31.1 °F 37% 30.00 in 10.0 mi South 8.1 mph - N/A   Clear
12:35 PM 58.3 °F - 32.0 °F 37% 29.99 in 10.0 mi South 6.9 mph - N/A   Clear
12:55 PM 59.0 °F - 33.1 °F 38% 29.97 in 10.0 mi SSW 8.1 mph - N/A   Clear
1:15 PM 59.2 °F - 34.0 °F 39% 29.97 in 10.0 mi South 5.8 mph 16.1 mph N/A   Clear
1:35 PM 59.9 °F - 34.0 °F 38% 29.96 in 10.0 mi WSW 10.4 mph - N/A   Clear
1:55 PM 59.5 °F - 33.6 °F 38% 29.95 in 10.0 mi SW 11.5 mph - N/A   Clear
2:15 PM 59.4 °F - 33.6 °F 38% 29.95 in 10.0 mi WSW 4.6 mph - N/A   Clear
2:35 PM 60.3 °F - 32.9 °F 36% 29.94 in 10.0 mi SW 10.4 mph - N/A   Clear
2:55 PM 60.4 °F - 32.5 °F 35% 29.93 in 10.0 mi WSW 5.8 mph - N/A   Clear
3:15 PM 60.8 °F - 33.3 °F 36% 29.92 in 10.0 mi WSW 5.8 mph - N/A   Clear
3:35 PM 61.0 °F - 32.9 °F 35% 29.92 in 10.0 mi WSW 9.2 mph - N/A   Clear
3:55 PM 60.8 °F - 31.5 °F 33% 29.92 in 10.0 mi West 12.7 mph - N/A   Clear
4:15 PM 60.1 °F - 31.8 °F 34% 29.92 in 10.0 mi West 6.9 mph - N/A   Clear
4:35 PM 59.4 °F - 31.6 °F 35% 29.93 in 10.0 mi West 8.1 mph - N/A   Clear
4:55 PM 58.3 °F - 32.0 °F 37% 29.92 in 10.0 mi West 6.9 mph - N/A   Clear
5:15 PM 57.2 °F - 32.2 °F 39% 29.92 in 10.0 mi WSW 5.8 mph - N/A   Clear
5:35 PM 54.7 °F - 33.6 °F 45% 29.92 in 10.0 mi SW 6.9 mph - N/A   Clear
5:55 PM 52.9 °F - 33.4 °F 48% 29.93 in 10.0 mi SW 5.8 mph - N/A   Clear
6:15 PM 52.5 °F - 33.1 °F 48% 29.93 in 10.0 mi SW 5.8 mph - N/A   Clear
6:35 PM 52.3 °F - 32.9 °F 48% 29.93 in 10.0 mi SW 6.9 mph - N/A   Clear
6:55 PM 52.0 °F - 32.5 °F 48% 29.93 in 10.0 mi SSW 6.9 mph - N/A   Clear
7:15 PM 49.5 °F - 33.4 °F 54% 29.93 in 10.0 mi SW 5.8 mph - N/A   Clear
7:35 PM 51.3 °F - 32.4 °F 48% 29.93 in 10.0 mi SSW 6.9 mph - N/A   Clear
7:55 PM 50.0 °F - 32.9 °F 52% 29.93 in 10.0 mi SW 5.8 mph - N/A   Clear
8:15 PM 50.0 °F - 33.1 °F 52% 29.94 in 10.0 mi SW 8.1 mph - N/A   Clear
8:35 PM 50.9 °F - 33.1 °F 51% 29.94 in 10.0 mi SW 11.5 mph - N/A   Clear
8:55 PM 51.4 °F - 32.9 °F 49% 29.95 in 10.0 mi West 10.4 mph - N/A   Clear
9:15 PM 50.2 °F - 32.9 °F 52% 29.97 in 10.0 mi West 6.9 mph - N/A   Clear
9:35 PM 49.1 °F - 32.4 °F 53% 29.98 in 10.0 mi NW 6.9 mph - N/A   Clear
9:55 PM 50.0 °F - 25.3 °F 38% 29.98 in 10.0 mi WNW 9.2 mph - N/A   Clear
10:15 PM 49.1 °F - 23.4 °F 36% 29.99 in 10.0 mi WNW 9.2 mph - N/A   Clear
10:35 PM 48.2 °F - 22.3 °F 36% 29.99 in 10.0 mi WNW 5.8 mph - N/A   Clear
10:55 PM 47.7 °F - 21.7 °F 36% 30.00 in 10.0 mi WNW 8.1 mph - N/A   Clear
11:15 PM 46.4 °F 43.5 °F 21.6 °F 37% 30.00 in 10.0 mi West 5.8 mph - N/A   Clear
11:35 PM 45.1 °F 42.8 °F 21.7 °F 40% 29.99 in 10.0 mi West 4.6 mph - N/A   Clear
11:55 PM 44.6 °F 41.4 °F 21.7 °F 40% 29.99 in 10.0 mi West 5.8 mph - N/A   Clear